When you browse on this site, cookies collect data to enhance your experience and personalize the content and advertising you see.
Visit our Privacy Policy to learn more. By continuing to use the site, you agree to this use of cookies and data.
  • In Österreich
  • Länderverzeichnis
  • Für 7 Tage
  • Wassertemperatur
  • Wetterkarte
  • News
  • Widgets
  • user-avatar
    Anmelden

    Stündliche Wetter Ozerany

    Heute, 7 Juni, Sonntag

    Zeit Temperatur Niederschläge Wind Luftdruck Luftfeuchtigkeit
    00:00 +16°C° 0 mm 1 m/S 747 mmHg 89%
    01:00 +16°C° 0 mm 1 m/S 747 mmHg 90%
    02:00 +15°C° 0 mm 1 m/S 747 mmHg 90%
    03:00 +16°C° 0 mm 1 m/S 747 mmHg 90%
    04:00 +16°C° 0 mm 1 m/S 747 mmHg 90%
    05:00 +16°C° 0 mm 1 m/S 748 mmHg 90%
    06:00 +18°C° 0 mm 2 m/S 748 mmHg 86%
    07:00 +19°C° 0 mm 2 m/S 748 mmHg 82%
    08:00 +21°C° 0 mm 2 m/S 748 mmHg 78%
    09:00 +22°C° 0.1 mm 3 m/S 748 mmHg 75%
    10:00 +24°C° 0.1 mm 3 m/S 748 mmHg 72%
    11:00 +25°C° 0.1 mm 3 m/S 748 mmHg 69%
    12:00 +26°C° 0.2 mm 3 m/S 748 mmHg 69%
    13:00 +26°C° 0.2 mm 3 m/S 748 mmHg 69%
    14:00 +27°C° 0.2 mm 3 m/S 748 mmHg 69%
    15:00 +26°C° 0.5 mm 3 m/S 748 mmHg 71%
    16:00 +26°C° 0.5 mm 3 m/S 747 mmHg 73%
    17:00 +26°C° 0.5 mm 3 m/S 747 mmHg 75%
    18:00 +25°C° 0.4 mm 3 m/S 747 mmHg 78%
    19:00 +22°C° 0.4 mm 3 m/S 747 mmHg 82%
    20:00 +21°C° 0.4 mm 3 m/S 747 mmHg 85%
    21:00 +20°C° 0 mm 3 m/S 747 mmHg 88%
    22:00 +19°C° 0 mm 3 m/S 747 mmHg 90%
    23:00 +18°C° 0 mm 3 m/S 748 mmHg 92%

    Morgen, 8 Juni, Montag

    Zeit Temperatur Niederschläge Wind Luftdruck Luftfeuchtigkeit
    00:00 +18°C° 0 mm 3 m/S 748 mmHg 93%
    01:00 +17°C° 0 mm 3 m/S 748 mmHg 94%
    02:00 +17°C° 0 mm 3 m/S 748 mmHg 95%
    03:00 +17°C° 0 mm 3 m/S 748 mmHg 95%
    04:00 +17°C° 0 mm 3 m/S 747 mmHg 96%
    05:00 +17°C° 0 mm 3 m/S 747 mmHg 96%
    06:00 +19°C° 0 mm 3 m/S 747 mmHg 92%
    07:00 +20°C° 0 mm 3 m/S 748 mmHg 87%
    08:00 +22°C° 0 mm 4 m/S 748 mmHg 83%
    09:00 +23°C° 0 mm 4 m/S 748 mmHg 77%
    10:00 +26°C° 0 mm 4 m/S 748 mmHg 71%
    11:00 +27°C° 0 mm 4 m/S 748 mmHg 65%
    12:00 +27°C° 0 mm 4 m/S 748 mmHg 63%
    13:00 +28°C° 0 mm 4 m/S 748 mmHg 60%
    14:00 +29°C° 0 mm 4 m/S 748 mmHg 58%
    15:00 +28°C° 0 mm 4 m/S 747 mmHg 61%
    16:00 +28°C° 0 mm 3 m/S 747 mmHg 64%
    17:00 +28°C° 0 mm 3 m/S 747 mmHg 67%
    18:00 +26°C° 0.1 mm 3 m/S 747 mmHg 73%
    19:00 +24°C° 0.1 mm 3 m/S 747 mmHg 79%
    20:00 +23°C° 0.1 mm 2 m/S 747 mmHg 85%
    21:00 +21°C° 0 mm 2 m/S 747 mmHg 87%
    22:00 +20°C° 0 mm 2 m/S 747 mmHg 90%
    23:00 +19°C° 0 mm 2 m/S 748 mmHg 92%

    übermorgen, 9 Juni, Dienstag

    Zeit Temperatur Niederschläge Wind Luftdruck Luftfeuchtigkeit
    00:00 +19°C° 0 mm 2 m/S 748 mmHg 93%
    01:00 +18°C° 0 mm 2 m/S 748 mmHg 94%
    02:00 +18°C° 0 mm 2 m/S 748 mmHg 95%
    03:00 +18°C° 0 mm 3 m/S 748 mmHg 95%
    04:00 +18°C° 0 mm 3 m/S 748 mmHg 94%
    05:00 +18°C° 0 mm 3 m/S 748 mmHg 94%
    06:00 +20°C° 0 mm 3 m/S 748 mmHg 90%
    07:00 +21°C° 0 mm 3 m/S 748 mmHg 85%
    08:00 +23°C° 0 mm 4 m/S 748 mmHg 81%
    09:00 +25°C° 0 mm 4 m/S 748 mmHg 74%
    10:00 +27°C° 0 mm 4 m/S 748 mmHg 68%
    11:00 +28°C° 0 mm 5 m/S 748 mmHg 61%
    12:00 +29°C° 0 mm 5 m/S 748 mmHg 60%
    13:00 +29°C° 0 mm 5 m/S 748 mmHg 59%
    14:00 +29°C° 0 mm 5 m/S 748 mmHg 57%
    15:00 +29°C° 0 mm 4 m/S 748 mmHg 60%
    16:00 +29°C° 0 mm 4 m/S 747 mmHg 63%
    17:00 +29°C° 0 mm 4 m/S 747 mmHg 65%
    18:00 +27°C° 0 mm 3 m/S 747 mmHg 70%
    19:00 +25°C° 0 mm 3 m/S 747 mmHg 76%
    20:00 +22°C° 0 mm 3 m/S 748 mmHg 81%
    21:00 +22°C° 0 mm 3 m/S 748 mmHg 84%
    22:00 +21°C° 0 mm 3 m/S 748 mmHg 87%
    23:00 +20°C° 0 mm 3 m/S 748 mmHg 90%

    10 Juni, Mittwoch

    Zeit Temperatur Niederschläge Wind Luftdruck Luftfeuchtigkeit
    00:00 +20°C° 0 mm 3 m/S 748 mmHg 91%
    01:00 +19°C° 0 mm 3 m/S 748 mmHg 93%
    02:00 +19°C° 0 mm 3 m/S 748 mmHg 94%
    03:00 +19°C° 0 mm 3 m/S 748 mmHg 93%
    04:00 +19°C° 0 mm 3 m/S 748 mmHg 92%
    05:00 +19°C° 0 mm 3 m/S 748 mmHg 92%
    06:00 +21°C° 0 mm 4 m/S 748 mmHg 87%
    07:00 +23°C° 0 mm 4 m/S 748 mmHg 82%
    08:00 +25°C° 0 mm 4 m/S 748 mmHg 77%
    09:00 +27°C° 0 mm 4 m/S 748 mmHg 72%
    10:00 +28°C° 0 mm 5 m/S 748 mmHg 67%
    11:00 +29°C° 0 mm 5 m/S 748 mmHg 62%
    12:00 +29°C° 0 mm 5 m/S 747 mmHg 61%
    13:00 +30°C° 0 mm 5 m/S 747 mmHg 59%
    14:00 +30°C° 0 mm 5 m/S 747 mmHg 57%
    15:00 +30°C° 0 mm 4 m/S 747 mmHg 60%
    16:00 +30°C° 0 mm 4 m/S 747 mmHg 62%
    17:00 +29°C° 0 mm 3 m/S 747 mmHg 65%
    18:00 +28°C° 0.1 mm 3 m/S 747 mmHg 71%
    19:00 +26°C° 0.1 mm 3 m/S 747 mmHg 78%
    20:00 +24°C° 0.1 mm 3 m/S 747 mmHg 84%
    21:00 +22°C° 0 mm 3 m/S 747 mmHg 87%
    22:00 +22°C° 0 mm 3 m/S 747 mmHg 90%
    23:00 +21°C° 0 mm 3 m/S 747 mmHg 92%

    11 Juni, Donnerstag

    Zeit Temperatur Niederschläge Wind Luftdruck Luftfeuchtigkeit
    00:00 +20°C° 0 mm 3 m/S 747 mmHg 93%
    01:00 +20°C° 0 mm 3 m/S 747 mmHg 94%
    02:00 +20°C° 0 mm 3 m/S 747 mmHg 95%
    03:00 +20°C° 0 mm 3 m/S 747 mmHg 94%
    04:00 +20°C° 0 mm 2 m/S 747 mmHg 94%
    05:00 +20°C° 0 mm 2 m/S 747 mmHg 94%
    06:00 +21°C° 0 mm 3 m/S 747 mmHg 89%
    07:00 +24°C° 0 mm 3 m/S 747 mmHg 84%
    08:00 +26°C° 0 mm 3 m/S 747 mmHg 80%
    09:00 +27°C° 0.1 mm 4 m/S 747 mmHg 73%
    10:00 +28°C° 0.1 mm 4 m/S 747 mmHg 67%
    11:00 +30°C° 0.1 mm 4 m/S 747 mmHg 61%
    12:00 +30°C° 0.1 mm 4 m/S 747 mmHg 60%
    13:00 +30°C° 0.1 mm 4 m/S 747 mmHg 60%
    14:00 +30°C° 0.1 mm 4 m/S 746 mmHg 60%
    15:00 +30°C° 0.1 mm 4 m/S 746 mmHg 62%
    16:00 +29°C° 0.1 mm 3 m/S 746 mmHg 65%
    17:00 +29°C° 0.1 mm 3 m/S 746 mmHg 67%
    18:00 +28°C° 0 mm 3 m/S 746 mmHg 73%
    19:00 +26°C° 0 mm 3 m/S 746 mmHg 79%
    20:00 +24°C° 0 mm 2 m/S 746 mmHg 85%
    21:00 +24°C° 0 mm 2 m/S 746 mmHg 88%
    22:00 +23°C° 0 mm 2 m/S 746 mmHg 91%
    23:00 +21°C° 0 mm 2 m/S 746 mmHg 93%

    12 Juni, Freitag

    Zeit Temperatur Niederschläge Wind Luftdruck Luftfeuchtigkeit
    00:00 +21°C° 0 mm 2 m/S 746 mmHg 94%
    01:00 +20°C° 0 mm 2 m/S 746 mmHg 95%
    02:00 +20°C° 0 mm 2 m/S 746 mmHg 96%
    03:00 +20°C° 0 mm 3 m/S 746 mmHg 96%
    04:00 +20°C° 0 mm 3 m/S 746 mmHg 96%
    05:00 +20°C° 0 mm 3 m/S 746 mmHg 96%
    06:00 +22°C° 0 mm 3 m/S 746 mmHg 91%
    07:00 +24°C° 0 mm 3 m/S 746 mmHg 86%
    08:00 +26°C° 0 mm 3 m/S 746 mmHg 80%
    09:00 +27°C° 0 mm 4 m/S 746 mmHg 74%
    10:00 +28°C° 0 mm 4 m/S 746 mmHg 68%
    11:00 +30°C° 0 mm 4 m/S 746 mmHg 62%
    12:00 +30°C° 0 mm 4 m/S 745 mmHg 59%
    13:00 +32°C° 0 mm 4 m/S 745 mmHg 57%
    14:00 +32°C° 0 mm 5 m/S 745 mmHg 54%
    15:00 +32°C° 0 mm 4 m/S 745 mmHg 57%
    16:00 +32°C° 0 mm 4 m/S 745 mmHg 61%
    17:00 +30°C° 0 mm 3 m/S 745 mmHg 64%
    18:00 +29°C° 0 mm 3 m/S 745 mmHg 70%
    19:00 +27°C° 0 mm 3 m/S 745 mmHg 76%
    20:00 +25°C° 0 mm 3 m/S 745 mmHg 82%
    21:00 +24°C° 0 mm 3 m/S 745 mmHg 85%
    22:00 +22°C° 0 mm 3 m/S 745 mmHg 88%
    23:00 +21°C° 0 mm 2 m/S 745 mmHg 91%
    Mehr zeigen